Overview Statistics Trail Chart Weather Telemetry Raw packets
 

This is the latest recevied weather packets stored in our database for station/object K9MWD. If no packets are shown the sender has not sent any weather packets the latest 10 day(s).

<< 91 92 93 94 95 96 97 >>
Time Temp. Humidity Pressure Rain* Wind** Luminosity Snow
1787959063 38.33° C 30% 1014 hPa 0 mm - 162 W/m² -
1787958758 38.89° C 30% 1013.9 hPa 0 mm - 194 W/m² -
1787958454 38.33° C 30% 1014 hPa 0 mm - 221 W/m² -
1787958150 37.78° C 31% 1013.7 hPa 0 mm - 183 W/m² -
1787957848 37.78° C 31% 1013.9 hPa 0 mm - 110 W/m² -
1787957543 37.78° C 32% 1013.9 hPa 0 mm - 115 W/m² -
1787957238 38.33° C 32% 1014 hPa 0 mm - 232 W/m² -
1787956933 38.33° C 32% 1013.8 hPa 0 mm - 271 W/m² -
1787956632 38.33° C 30% 1013.8 hPa 0 mm - 295 W/m² -
1787956327 38.89° C 30% 1013.7 hPa 0 mm - 321 W/m² -
1787956023 38.89° C 30% 1013.9 hPa 0 mm - 340 W/m² -
1787955718 38.89° C 30% 1013.9 hPa 0 mm - 361 W/m² -
1787955414 38.33° C 30% 1013.9 hPa 0 mm - 383 W/m² -
1787955112 38.33° C 32% 1014.1 hPa 0 mm - 411 W/m² -
1787954808 38.33° C 30% 1013.9 hPa 0 mm - 425 W/m² -
1787954504 38.89° C 32% 1014.2 hPa 0 mm - 443 W/m² -
1787954203 38.89° C 31% 1014.1 hPa 0 mm - 448 W/m² -
1787953898 38.89° C 32% 1014.3 hPa 0 mm - 460 W/m² -
1787953597 38.33° C 32% 1014.4 hPa 0 mm - 472 W/m² -
1787953292 38.33° C 31% 1014.4 hPa 0 mm - 487 W/m² -
1787952989 38.89° C 32% 1014.2 hPa 0 mm - 516 W/m² -
1787952684 38.89° C 31% 1014.4 hPa 0 mm - 541 W/m² -
1787952384 38.89° C 33% 1014.6 hPa 0 mm - 573 W/m² -
1787952080 38.33° C 31% 1014.5 hPa 0 mm - 589 W/m² -
1787951779 38.89° C 32% 1014.7 hPa 0 mm - 592 W/m² -

* Rain latest hour (hover to see other rain measurements)
** Current wind speed in m/s (hover to see current wind gust speed)